Pantelleria, Italy

2:17 AM CEST on May 30, 2017 (GMT +0200)
Pantelleria Mil

Weather History for LICG - August, 2014

Change the Weather History Date:

Saturday, August 2, 2014

  Actual Average Record
Temperature  
Mean Temperature 80 °F -  
Max Temperature 94 °F 83 °F 98 °F (2015)
Min Temperature 67 °F 71 °F 67 °F (2014)
Cooling Degree Days 16    
Growing Degree Days 30 (Base 50)    
Moisture  
Dew Point 68 °F    
Average Humidity 56    
Maximum Humidity 79    
Minimum Humidity 30    
Precipitation  
Precipitation 0.00 in 0.02 in - ()
Sea Level Pressure  
Sea Level Pressure 29.88 in    
Wind  
Wind Speed 4 mph ()    
Max Wind Speed 10 mph    
Max Gust Speed -    
Visibility 14.6 miles    
Events      
Averages and records for this station are not official NWS values.
T = Trace of Precipitation, MM = Missing Value Source: Averaged Metar Reports

Daily Weather History Graph

Daily Weather History Graph

Search for Another Location

Airport or City:

Trip Planner

Search our weather history database for the weather conditions in past years. The results will help you decide how hot, cold, wet, or windy it might be!

Date:

Astronomy

Aug. 02, 2014 Rise Set
Actual Time 6:18 AM CEST 8:17 PM CEST
Civil Twilight 5:49 AM CEST 8:46 PM CEST
Nautical Twilight 5:14 AM CEST 9:21 PM CEST
Astronomical Twilight 4:37 AM CEST 9:58 PM CEST
Moon 12:13 PM CEST (8/2) 11:37 PM CEST (8/2)
Length of Visible Light 14h 56m
Length of Day
13h 59m
Waxing Crescent, 34% of the Moon is Illuminated
Aug 2
Waxing Crescent
Aug 4
First Quarter
Aug 10
Full
Aug 17
Last Quarter
Aug 25
New

Hourly Weather History & Observations

Time (CEST) Temp. Heat Index Dew Point Humidity Pressure Visibility Wind Dir Wind Speed Gust Speed Precip Events Conditions
6:55 AM 71.6 °F - 59.0 °F 64% 29.86 in - WSW 2.3 mph - N/A   Clear
7:00 AM 71 °F - 60 °F 59% 29.85 in 6 mi WSW 2.3 mph - -  
7:55 AM 75.2 °F - 68.0 °F 78% 29.86 in - Calm Calm - N/A   Clear
8:00 AM 74 °F - 69 °F 78% 29.86 in 9 mi Calm Calm - -  
8:55 AM 78.8 °F - 66.2 °F 65% 29.89 in - NNW 1.2 mph - N/A   Clear
9:00 AM 79 °F - 67 °F 57% 29.87 in 12 mi NNW 1.2 mph - -  
9:55 AM 80.6 °F 81.8 °F 62.6 °F 54% 29.89 in - ENE 5.8 mph - N/A   Clear
10:00 AM 80 °F - 62 °F 45% 29.87 in 12 mi ENE 5.8 mph - -  
10:55 AM 80.6 °F 83.2 °F 68.0 °F 65% 29.89 in - ENE 5.8 mph - N/A   Clear
11:00 AM 81 °F - 69 °F 58% 29.87 in 12 mi ENE 5.8 mph - -  
11:55 AM 80.6 °F 85.4 °F 73.4 °F 79% 29.92 in - NE 5.8 mph - N/A   Clear
12:00 PM 81 °F - 74 °F 74% 29.90 in 12 mi NE 5.8 mph - -   Scattered Clouds
12:55 PM 80.6 °F 84.6 °F 71.6 °F 74% 29.92 in - NNE 4.6 mph - N/A   Clear
1:00 PM 81 °F - 72 °F 68% 29.90 in 12 mi NNE 4.6 mph - -   Scattered Clouds
1:55 PM 87.8 °F 99.7 °F 77.0 °F 70% 29.92 in - NE 5.8 mph - N/A   Clear
2:00 PM 88 °F - 78 °F 64% 29.89 in 19 mi NE 5.8 mph - -   Scattered Clouds
2:55 PM 91.4 °F 96.8 °F 69.8 °F 49% 29.92 in - SSW 8.1 mph - N/A   Clear
3:00 PM 91 °F - 70 °F 41% 29.89 in 19 mi SSW 8.1 mph - -  
3:55 PM 93.2 °F 96.2 °F 66.2 °F 41% 29.89 in - SSW 9.2 mph - N/A   Clear
4:00 PM 94 °F - 66 °F 30% 29.86 in 19 mi SSW 9.2 mph - -   Scattered Clouds
4:55 PM 93.2 °F 96.2 °F 66.2 °F 41% 29.89 in - NNE 8.1 mph - N/A   Clear
5:00 PM 93 °F - 65 °F 30% 29.85 in 19 mi NNE 8.1 mph - -  
5:55 PM 91.4 °F 95.4 °F 68.0 °F 46% 29.89 in - SSW 6.9 mph - N/A   Clear
6:00 PM 91 °F - 68 °F 37% 29.84 in 19 mi SSW 6.9 mph - -  
6:55 PM 91.4 °F 95.4 °F 68.0 °F 46% 29.86 in - SSW 10.4 mph - N/A   Clear
7:00 PM 91 °F - 67 °F 36% 29.83 in 19 mi SSW 10.4 mph - -  
7:55 PM 84.2 °F 89.6 °F 71.6 °F 66% 29.86 in - Variable 2.3 mph - N/A   Clear
8:00 PM 84 °F - 72 °F 58% 29.83 in 16 mi 2.3 mph - -